User: anonymous   Login
Location: Unspecified
(0.0000°N, 0.0000°E)
Time: 09:12:14
(UTC+00:00)
Language:

NANOSAT 1B - Orbit

View from above orbital plane
View from above orbital plane
View from above satellite
View from above satellite

Ground track
Ground track

The orbit data is extracted from the following two-line orbital elements,

1 35685U 09041E   17086.87930726 +.00000310 +00000-0 +43554-4 0  9994
2 35685 098.2317 058.7921 0058236 316.4273 043.2348 14.83904292414208
Epoch (UTC): 27 March 2017 21:06:12
Eccentricity: 0.0058236
inclination: 98.2317°
perigee height: 576 km
apogee height: 658 km
right ascension of ascending node: 58.7921°
argument of perigee: 316.4273°
revolutions per day: 14.83904292
mean anomaly at epoch: 43.2348°
orbit number at epoch: 41420

The dashed part of the orbit path shows where the satellite is in the earth's shadow,  

DLR